Zurück zum Katalog

ARIANE 5 R/B

AktivSSO
NORAD 28499·ROCKET BODY·🇫🇷 France

Gestartet Dec 18, 2004 von Guiana Space Centre

Loading…

Nächste Überflüge (nächste 24 Stunden)

TLE

AktuellSource: Space-Track

Epoche: Sep 14, 2026, 10:44 UTC

1 28499U 04049H   26257.44731402  .00000546  00000-0  66154-4 0  9997
2 28499  98.2790  73.2004 0084977  99.1933 261.8906 14.85557879173815

Verfolge ARIANE 5 R/B in Echtzeit mit AllMySat

Download on the App Store